Regional Weather Roundup
Issued by NWS

Home | Current Version | Previous Version | Graphics & Text | Print | Product List | Glossary On
Versions: 1 2 3 4 5 6 7 8 9 10 11 12 13 14 15 16 17 18 19 20 21 22 23 24 25 26 27 28 29 30 31 32 33 34 35 36 37 38 39 40 41 42 43 44 45 46 47 48 49 50
000
ASUS45 KPSR 160900
RWRAZ

PRELIMINARY ARIZONA REGIONAL HOURLY WEATHER ROUNDUP
NATIONAL WEATHER SERVICE PHOENIX AZ
200 AM MST WED APR 16 2014

NOTE: FAIR INDICATES FEW OR NO CLOUDS BELOW 12,000 FEET WITH NO
SIGNIFICANT WEATHER AND/OR OBSTRUCTIONS TO VISIBILITY.

AZZ001>003-036-161000-
NORTHWEST ARIZONA

CITY           SKY/WX    TMP DP  RH WIND       PRES   REMARKS
KINGMAN        CLEAR     54   2  12 CALM      29.85S
$$

AZZ004>008-015-016-018-161000-
NORTH CENTRAL ARIZONA

CITY           SKY/WX    TMP DP  RH WIND       PRES   REMARKS
GRAND CANYON   CLEAR     24  -3  30 E3        29.99S
WILLIAMS       CLEAR     32   0  25 SE9       30.05F WCI  24
PRESCOTT       CLEAR     42  12  29 S8        29.92F
FLAGSTAFF      CLEAR     31   3  30 SW5       29.99F WCI  26
PAYSON         CLEAR     45  12  26 CALM      29.95S
PAGE           CLEAR     58   2  10 W6        29.84F
$$

AZZ009>014-017-161000-
NORTHEAST ARIZONA

CITY           SKY/WX    TMP DP  RH WIND       PRES   REMARKS
WINSLOW        NOT AVBL
SAINT JOHNS    PTCLDY    47   8  20 CALM      29.92F
WINDOW ROCK    CLEAR     32   0  25 MISG      29.96F
SHOW LOW       CLEAR     46   7  19 S12       29.98F
$$

AZZ023-161000-
GREATER PHOENIX AREA

CITY           SKY/WX    TMP DP  RH WIND       PRES   REMARKS
PHOENIX        CLEAR     68  18  14 E7        29.73F
LUKE AFB       NOT AVBL
DEER VALLEY    CLEAR     65   9  11 CALM      29.76S
SCOTTSDALE     CLEAR     62  24  23 CALM      29.77S
$$

AZZ027-028-161000-
SOUTHWEST MARICOPA COUNTY AND PINAL COUNTY

CITY           SKY/WX    TMP DP  RH WIND       PRES   REMARKS
CASA GRANDE    CLEAR     55  16  21 CALM      29.78S
$$

AZZ503-504-507>509-161000-
SOUTHEAST ARIZONA

CITY           SKY/WX    TMP DP  RH WIND       PRES   REMARKS
TUCSON         CLEAR     59  10  14 SE7       29.85F
DAVIS-MONTHAN  CLEAR     56  12  17 SE9       29.84F
NOGALES        PTCLDY    56  12  17 CALM      29.90F
SIERRA VISTA   PTCLDY    59   7  12 SW10      29.93S
SAFFORD        CLEAR     50   6  16 CALM      29.84S
$$

AZZ020-021-025-026-031-161000-
SOUTHWEST ARIZONA

CITY           SKY/WX    TMP DP  RH WIND       PRES   REMARKS
YUMA           NOT AVBL
$$

CAZ031-033-041-043-047-048-061-161000-
SOUTHERN CALIFORNIA

CITY           SKY/WX    TMP DP  RH WIND       PRES   REMARKS
DOWNTOWN L.A.  CLOUDY    58  53  84 CALM      29.87F
L.A. AIRPORT   MOCLDY    59  53  80 VRB5      29.87F
SAN DIEGO      CLOUDY    59  52  77 S5        29.89F
BURBANK        CLEAR     56  52  86 E6        29.87S
ONTARIO        PTCLDY    56  50  80 W6        29.87F
RIVERSIDE      CLEAR     58  49  72 CALM      29.87F
PALM SPRINGS   CLEAR     72  33  24 CALM      29.74S
EL CENTRO NAS  CLEAR     65  30  27 W6        29.71F
IMPERIAL       CLEAR     65  35  33 W8        29.70F
BLYTHE         CLEAR     71  22  15 SW3       29.71F
$$

NVZ020-UTZ003-161000-
SOUTHERN NEVADA-UTAH

CITY           SKY/WX    TMP DP  RH WIND       PRES   REMARKS
LAS VEGAS      NOT AVBL
SALT LAKE CITY CLOUDY    46  19  34 N10       29.95S
$$

NMZ009-TXZ055-161000-
NEW MEXICO-WEST TEXAS

CITY           SKY/WX    TMP DP  RH WIND       PRES   REMARKS
ALBUQUERQUE    PTCLDY    46   8  21 SE8       29.90F
EL PASO        PTCLDY    56   4  12 CALM      29.90F
$$


........................KEY........................
SKY/WX - SKY CONDITION/WEATHER
TMP    - TEMPERATURE IN FAHRENHEIT
DP     - DEW POINT IN FAHRENHEIT
RH     - RELATIVE HUMIDITY IN PERCENT
WIND   - DIRECTION AND SPEED IN MILES PER HOUR (MPH)
VRB    - VARIABLE WIND DIRECTION
PRES   - MEAN SEA LEVEL PRESSURE IN INCHES OF MERCURY
         F - FALLING PRESSURE   R - RISING PRESSURE
         S - STEADY PRESSURE
VSB    - VISIBILITY IN MILES
HX     - HEAT INDEX IN FAHRENHEIT
WCI    - WIND CHILL INDEX IN FAHRENHEIT
TC     - TEMPERATURE IN CELSIUS WHICH IS ALSO KNOWN AS
         TEMPERATURE IN CENTIGRADE
AFB    - AIR FORCE BASE
         LUKE AFB IS LUKE AIR FORCE BASE
         DAVIS-MONTHAN IS DAVIS-MONTHAN AIR FORCE BASE
NAS    - NAVAL AIR STATION
         EL CENTRO NAS IS EL CENTRO NAVAL AIR STATION
N/A    - NOT AVAILABLE



USA.gov is the U.S. government's official web portal to all federal, state and local government web resources and services.